Fort Campbell, KY

1:43 AM CDT on April 27, 2018 (GMT -0500)
Campbell Army Air Field

Weather History for KHOP - May, 2014

Change the Weather History Date:

Saturday, May 10, 2014

  Actual Average Record
Temperature  
Mean Temperature 71 °F -  
Max Temperature 78 °F 75 °F 88 °F (2011)
Min Temperature 64 °F 55 °F 46 °F (1997)
Cooling Degree Days 6    
Growing Degree Days 21 (Base 50)    
Moisture  
Dew Point 66 °F    
Average Humidity 95    
Maximum Humidity 100    
Minimum Humidity 66    
Precipitation  
Precipitation 0.84 in - - ()
Sea Level Pressure  
Sea Level Pressure 29.98 in    
Wind  
Wind Speed 9 mph (SW)    
Max Wind Speed 24 mph    
Max Gust Speed 31 mph    
Visibility 8 miles    
Events Fog , Rain , Thunderstorm    
Averages and records for this station are not official NWS values.
T = Trace of Precipitation, MM = Missing Value Source: NWS Daily Summary

Daily Weather History Graph

Daily Weather History Graph

Search for Another Location

Airport or City:

Astronomy

May. 10, 2014 Rise Set
Actual Time 5:47 AM CDT 7:46 PM CDT
Civil Twilight 5:18 AM CDT 8:14 PM CDT
Nautical Twilight 4:44 AM CDT 8:49 PM CDT
Astronomical Twilight 4:06 AM CDT 9:26 PM CDT
Moon 3:48 PM CDT (5/10) 3:12 AM CDT (5/10)
Length of Visible Light 14h 56m
Length of Day
13h 59m
Waxing Gibbous, 82% of the Moon is Illuminated
May 10
Waxing Gibbous
May 14
Full
May 21
Last Quarter
May 28
New
Jun 5
First Quarter

Hourly Weather History & Observations

Time (CDT) Temp. Dew Point Humidity Pressure Visibility Wind Dir Wind Speed Gust Speed Precip Events Conditions
12:55 AM 68.0 °F 64.4 °F 88% 29.96 in 10.0 mi South 8.1 mph - N/A   Overcast
12:58 AM 67.3 °F 64.8 °F 92% 29.96 in 10.0 mi South 5.8 mph - N/A   Overcast
1:57 AM 66.2 °F 66.2 °F 100% 29.97 in 10.0 mi WSW 3.5 mph - N/A Thunderstorm Overcast
1:58 AM 66.2 °F 66.2 °F 100% 29.96 in 10.0 mi SW 3.5 mph - N/A Thunderstorm Overcast
2:07 AM 66.2 °F 66.2 °F 100% 29.97 in 10.0 mi South 4.6 mph - N/A Thunderstorm Thunderstorm
2:23 AM 66.2 °F 66.2 °F 100% 29.96 in 10.0 mi South 6.9 mph - N/A Rain , Thunderstorm Light Thunderstorms and Rain
2:41 AM 64.4 °F 64.4 °F 100% 29.96 in 10.0 mi South 4.6 mph - N/A Rain , Thunderstorm Light Thunderstorms and Rain
2:43 AM 64.4 °F 64.4 °F 100% 29.96 in 10.0 mi South 5.8 mph - N/A Thunderstorm Thunderstorm
2:53 AM 64.4 °F 64.4 °F 100% 29.96 in 10.0 mi South 5.8 mph - N/A Rain , Thunderstorm Light Thunderstorms and Rain
2:55 AM 64.4 °F 64.4 °F 100% 29.95 in 10.0 mi South 4.6 mph - N/A Thunderstorm Light Drizzle
2:56 AM 64.4 °F 64.4 °F 100% 29.95 in 10.0 mi South 4.6 mph - N/A Rain , Thunderstorm Light Thunderstorms and Rain
2:58 AM 64.4 °F 64.4 °F 100% 29.95 in 10.0 mi South 4.6 mph - 0.01 in Rain , Thunderstorm Light Thunderstorms and Rain
3:06 AM 64.4 °F 64.4 °F 100% 29.94 in 2.5 mi South 12.7 mph - N/A Rain , Thunderstorm Heavy Thunderstorms and Rain
3:07 AM 64.4 °F 64.4 °F 100% 29.95 in 2.0 mi SSW 12.7 mph - N/A Rain , Thunderstorm Heavy Thunderstorms and Rain
3:08 AM 64.4 °F 64.4 °F 100% 29.95 in 2.0 mi SSW 12.7 mph - N/A Rain , Thunderstorm Heavy Thunderstorms and Rain
3:09 AM 64.4 °F 64.4 °F 100% 29.96 in 2.0 mi SSW 10.4 mph - N/A Rain , Thunderstorm Heavy Thunderstorms and Rain
3:10 AM 64.4 °F 64.4 °F 100% 29.95 in 1.8 mi South 9.2 mph - N/A Rain , Thunderstorm Heavy Thunderstorms and Rain
3:13 AM 64.4 °F 64.4 °F 100% 29.95 in 2.0 mi SSW 8.1 mph - N/A Rain , Thunderstorm Light Thunderstorms and Rain
3:15 AM 64.4 °F 64.4 °F 100% 29.95 in 3.0 mi SSW 8.1 mph - N/A Rain , Thunderstorm Light Thunderstorms and Rain
3:17 AM 64.4 °F 64.4 °F 100% 29.95 in 5.0 mi SSW 6.9 mph - N/A Rain , Thunderstorm Light Thunderstorms and Rain
3:21 AM 64.4 °F 64.4 °F 100% 29.96 in 10.0 mi South 8.1 mph - N/A Rain , Thunderstorm Light Rain
3:23 AM 64.4 °F 64.4 °F 100% 29.96 in 10.0 mi SSW 6.9 mph - N/A Thunderstorm Overcast
3:57 AM 64.4 °F 64.4 °F 100% 29.95 in 10.0 mi South 6.9 mph - N/A   Overcast
3:58 AM 64.6 °F 64.6 °F 100% 29.95 in 10.0 mi South 5.8 mph - 0.29 in   Overcast
4:19 AM 64.4 °F 64.4 °F 100% 29.96 in 10.0 mi South 6.9 mph - N/A Thunderstorm Heavy Drizzle
4:24 AM 64.4 °F 64.4 °F 100% 29.96 in 10.0 mi SSW 5.8 mph - N/A Rain , Thunderstorm Light Rain
4:25 AM 64.4 °F 64.4 °F 100% 29.96 in 10.0 mi SSW 6.9 mph - N/A Rain , Thunderstorm Light Rain
4:39 AM 64.4 °F 64.4 °F 100% 29.96 in 6.0 mi South 6.9 mph - N/A Rain , Thunderstorm Light Thunderstorms and Rain
4:58 AM 64.2 °F 64.2 °F 100% 29.96 in 10.0 mi South 5.8 mph - 0.08 in Rain , Thunderstorm Light Thunderstorms and Rain
5:01 AM 64.4 °F 64.4 °F 100% 29.96 in 6.0 mi South 8.1 mph - N/A Rain Rain
5:07 AM 64.4 °F 64.4 °F 100% 29.96 in 5.0 mi SSW 5.8 mph - N/A Rain , Thunderstorm Light Rain
5:08 AM 64.4 °F 64.4 °F 100% 29.96 in 5.0 mi SSW 4.6 mph - N/A Rain , Thunderstorm Light Rain
5:12 AM 64.4 °F 64.4 °F 100% 29.96 in 9.0 mi SSW 4.6 mph - N/A Rain , Thunderstorm Light Rain
5:13 AM 64.4 °F 64.4 °F 100% 29.96 in 10.0 mi SSW 5.8 mph - N/A Thunderstorm Overcast
5:15 AM 64.4 °F 64.4 °F 100% 29.96 in 10.0 mi South 4.6 mph - N/A Thunderstorm Light Drizzle
5:20 AM 64.4 °F 64.4 °F 100% 29.95 in 10.0 mi South 4.6 mph - N/A Thunderstorm Light Drizzle
5:28 AM 64.4 °F 64.4 °F 100% 29.95 in 10.0 mi South 5.8 mph - N/A   Overcast
5:49 AM 64.4 °F 64.4 °F 100% 29.95 in 10.0 mi South 5.8 mph - N/A   Mostly Cloudy
5:51 AM 64.4 °F 64.4 °F 100% 29.95 in 10.0 mi South 5.8 mph - N/A   Overcast
5:52 AM 64.4 °F 64.4 °F 100% 29.95 in 10.0 mi South 4.6 mph - N/A   Overcast
5:58 AM 64.2 °F 64.2 °F 100% 29.96 in 10.0 mi South 4.6 mph - 0.07 in   Mostly Cloudy
6:02 AM 64.4 °F 64.4 °F 100% 29.96 in 8.0 mi South 5.8 mph - N/A Rain Light Rain
6:11 AM 64.4 °F 64.4 °F 100% 29.97 in 10.0 mi South 4.6 mph - N/A   Mostly Cloudy
6:31 AM 64.4 °F 64.4 °F 100% 29.98 in 10.0 mi SSW 4.6 mph - N/A Thunderstorm Thunderstorm
6:39 AM 64.4 °F 64.4 °F 100% 29.99 in 8.0 mi SSW 6.9 mph - N/A Rain , Thunderstorm Light Thunderstorms and Rain
6:46 AM 64.4 °F 64.4 °F 100% 30.01 in 8.0 mi SW 10.4 mph - N/A Rain , Thunderstorm Light Rain
6:48 AM 64.4 °F 64.4 °F 100% 30.01 in 8.0 mi SW 11.5 mph - N/A Rain , Thunderstorm Light Rain
6:49 AM 64.4 °F 64.4 °F 100% 30.01 in 9.0 mi SW 11.5 mph - N/A Thunderstorm Light Drizzle
6:50 AM 64.4 °F 64.4 °F 100% 30.01 in 10.0 mi SW 11.5 mph - N/A Thunderstorm Light Drizzle
6:54 AM 64.4 °F 64.4 °F 100% 30.01 in 8.0 mi SW 9.2 mph - N/A Rain , Thunderstorm Light Thunderstorms and Rain
6:55 AM 64.4 °F 64.4 °F 100% 30.01 in 8.0 mi SW 10.4 mph - N/A Rain , Thunderstorm Light Thunderstorms and Rain
6:58 AM 64.2 °F 64.2 °F 100% 30.01 in 8.0 mi WSW 13.8 mph - 0.02 in Rain , Thunderstorm Light Thunderstorms and Rain
7:02 AM 64.4 °F 64.4 °F 100% 30.02 in 8.0 mi WSW 18.4 mph 24.2 mph N/A Rain , Thunderstorm Light Thunderstorms and Rain
7:05 AM 64.4 °F 64.4 °F 100% 30.02 in 8.0 mi WSW 17.3 mph 24.2 mph N/A Rain , Thunderstorm Light Thunderstorms and Rain
7:09 AM 64.4 °F 64.4 °F 100% 30.02 in 7.0 mi WSW 19.6 mph 24.2 mph N/A Rain Light Rain
7:58 AM 64.0 °F 64.0 °F 100% 29.99 in 7.0 mi SSE 2.3 mph - 0.14 in Rain Light Rain
8:18 AM 64.4 °F 64.4 °F 100% 29.99 in 10.0 mi South 6.9 mph - N/A   Mostly Cloudy
8:58 AM 64.9 °F 64.9 °F 100% 29.99 in 10.0 mi SSW 10.4 mph - 0.03 in   Scattered Clouds
9:43 AM 69.8 °F 69.8 °F 100% 30.00 in 10.0 mi SSW 15.0 mph - N/A   Mostly Cloudy
9:44 AM 69.8 °F 69.8 °F 100% 30.00 in 10.0 mi SW 13.8 mph - N/A   Mostly Cloudy
9:58 AM 70.2 °F 70.0 °F 99% 30.00 in 10.0 mi SW 16.1 mph - N/A   Mostly Cloudy
10:23 AM 69.8 °F 69.8 °F 100% 30.01 in 10.0 mi WSW 12.7 mph - N/A   Mostly Cloudy
10:35 AM 68.0 °F 68.0 °F 100% 30.04 in 6.0 mi West 23.0 mph 28.8 mph N/A Rain , Thunderstorm Light Thunderstorms and Rain
10:36 AM 68.0 °F 68.0 °F 100% 30.04 in 2.0 mi West 24.2 mph 31.1 mph N/A Rain , Thunderstorm Thunderstorms and Rain
10:37 AM 68.0 °F 68.0 °F 100% 30.04 in 1.0 mi West 23.0 mph 31.1 mph N/A Rain , Thunderstorm Thunderstorms and Rain
10:38 AM 68.0 °F 68.0 °F 100% 30.03 in 0.8 mi West 18.4 mph 31.1 mph N/A Rain , Thunderstorm Thunderstorms and Rain
10:39 AM 68.0 °F 68.0 °F 100% 30.03 in 0.5 mi West 13.8 mph 31.1 mph N/A Fog , Rain , Thunderstorm Heavy Thunderstorms and Rain
10:43 AM 66.2 °F 66.2 °F 100% 30.02 in 0.5 mi WSW 21.9 mph 31.1 mph N/A Fog , Rain , Thunderstorm Heavy Thunderstorms and Rain
10:44 AM 66.2 °F 66.2 °F 100% 30.02 in 0.5 mi West 20.7 mph 31.1 mph N/A Fog , Rain , Thunderstorm Heavy Thunderstorms and Rain
10:45 AM 66.2 °F 66.2 °F 100% 30.02 in 0.5 mi West 18.4 mph 31.1 mph N/A Fog , Rain , Thunderstorm Heavy Thunderstorms and Rain
10:46 AM 66.2 °F 66.2 °F 100% 30.02 in 0.5 mi West 15.0 mph 31.1 mph N/A Fog , Rain , Thunderstorm Heavy Thunderstorms and Rain
10:47 AM 66.2 °F 66.2 °F 100% 30.02 in 0.8 mi West 12.7 mph 26.5 mph N/A Rain , Thunderstorm Heavy Thunderstorms and Rain
10:48 AM 66.2 °F 66.2 °F 100% 30.02 in 1.0 mi West 12.7 mph 26.5 mph N/A Rain , Thunderstorm Thunderstorms and Rain
10:49 AM 66.2 °F 66.2 °F 100% 30.02 in 1.2 mi West 10.4 mph 26.5 mph N/A Rain , Thunderstorm Thunderstorms and Rain
10:50 AM 66.2 °F 66.2 °F 100% 30.01 in 1.8 mi West 9.2 mph 26.5 mph N/A Rain , Thunderstorm Thunderstorms and Rain
10:51 AM 66.2 °F 66.2 °F 100% 30.01 in 2.0 mi West 9.2 mph 26.5 mph N/A Rain , Thunderstorm Thunderstorms and Rain
10:53 AM 66.2 °F 66.2 °F 100% 30.01 in 3.0 mi WSW 11.5 mph 26.5 mph N/A Rain , Thunderstorm Thunderstorms and Rain
10:54 AM 66.2 °F 66.2 °F 100% 30.02 in 3.0 mi WSW 10.4 mph - N/A Rain , Thunderstorm Thunderstorms and Rain
10:58 AM 65.8 °F 65.8 °F 100% 30.02 in 5.0 mi SW 12.7 mph - 0.19 in Rain , Thunderstorm Thunderstorms and Rain
10:59 AM 66.2 °F 66.2 °F 100% 30.02 in 6.0 mi SW 15.0 mph - N/A Rain , Thunderstorm Rain
11:17 AM 64.4 °F 64.4 °F 100% 30.03 in 10.0 mi WSW 12.7 mph - N/A   Mostly Cloudy
11:58 AM 69.3 °F 69.3 °F 100% 30.01 in 10.0 mi SSW 10.4 mph - 0.01 in   Mostly Cloudy
12:32 PM 71.6 °F 71.6 °F 100% 30.00 in 10.0 mi SW 13.8 mph - N/A   Mostly Cloudy
12:35 PM 71.6 °F 71.6 °F 100% 29.99 in 10.0 mi SW 16.1 mph - N/A   Mostly Cloudy
12:36 PM 73.4 °F 71.6 °F 94% 30.00 in 10.0 mi SW 15.0 mph - N/A   Mostly Cloudy
12:37 PM 73.4 °F 71.6 °F 94% 30.00 in 10.0 mi WSW 15.0 mph - N/A   Mostly Cloudy
12:38 PM 73.4 °F 71.6 °F 94% 30.00 in 10.0 mi WSW 15.0 mph - N/A   Mostly Cloudy
12:40 PM 73.4 °F 71.6 °F 94% 29.99 in 10.0 mi SW 16.1 mph - N/A   Mostly Cloudy
12:45 PM 71.6 °F 71.6 °F 100% 30.00 in 10.0 mi SW 13.8 mph - N/A   Mostly Cloudy
12:50 PM 71.6 °F 71.6 °F 100% 29.99 in 10.0 mi WSW 16.1 mph - N/A   Mostly Cloudy
12:57 PM 73.4 °F 69.8 °F 88% 29.99 in 10.0 mi WSW 17.3 mph - N/A   Mostly Cloudy
12:58 PM 73.4 °F 69.8 °F 88% 29.99 in 10.0 mi WSW 18.4 mph - N/A   Mostly Cloudy
1:25 PM 75.2 °F 68.0 °F 78% 29.98 in 10.0 mi SW 15.0 mph 24.2 mph N/A   Mostly Cloudy
1:30 PM 75.2 °F 69.8 °F 83% 29.98 in 10.0 mi WSW 19.6 mph 24.2 mph N/A   Mostly Cloudy
1:33 PM 75.2 °F 68.0 °F 78% 29.98 in 10.0 mi WSW 16.1 mph 24.2 mph N/A   Mostly Cloudy
1:38 PM 75.2 °F 68.0 °F 78% 29.98 in 10.0 mi SW 19.6 mph 24.2 mph N/A   Mostly Cloudy
1:40 PM 75.2 °F 68.0 °F 78% 29.98 in 10.0 mi WSW 18.4 mph - N/A   Scattered Clouds
1:43 PM 75.2 °F 68.0 °F 78% 29.98 in 10.0 mi WSW 17.3 mph - N/A   Mostly Cloudy
1:54 PM 75.2 °F 68.0 °F 78% 29.98 in 10.0 mi WSW 15.0 mph - N/A   Mostly Cloudy
1:56 PM 75.2 °F 68.0 °F 78% 29.98 in 10.0 mi West 15.0 mph - N/A   Mostly Cloudy
1:58 PM 75.2 °F 68.4 °F 79% 29.98 in 10.0 mi WSW 16.1 mph 21.9 mph N/A   Mostly Cloudy
2:02 PM 75.2 °F 68.0 °F 78% 29.98 in 10.0 mi WSW 15.0 mph 23.0 mph N/A   Mostly Cloudy
2:16 PM 77.0 °F 68.0 °F 74% 29.98 in 10.0 mi SW 15.0 mph 20.7 mph N/A   Mostly Cloudy
2:26 PM 77.0 °F 69.8 °F 78% 29.98 in 10.0 mi WSW 13.8 mph - N/A   Mostly Cloudy
2:43 PM 77.0 °F 68.0 °F 74% 29.98 in 10.0 mi WSW 15.0 mph - N/A   Mostly Cloudy
2:45 PM 77.0 °F 68.0 °F 74% 29.98 in 10.0 mi WSW 12.7 mph - N/A   Mostly Cloudy
2:58 PM 77.4 °F 67.8 °F 72% 29.98 in 10.0 mi West 12.7 mph - N/A   Scattered Clouds
3:58 PM 78.4 °F 66.7 °F 67% 29.96 in 10.0 mi WSW 13.8 mph - N/A   Partly Cloudy
4:58 PM 78.8 °F 66.6 °F 66% 29.95 in 10.0 mi WSW 11.5 mph - N/A   Clear
5:58 PM 78.4 °F 66.4 °F 66% 29.95 in 10.0 mi West 6.9 mph - N/A   Clear
6:58 PM 77.2 °F 67.5 °F 72% 29.95 in 10.0 mi SSW 3.5 mph - N/A   Clear
7:58 PM 74.7 °F 67.5 °F 78% 29.96 in 10.0 mi SE 2.3 mph - N/A   Clear
8:58 PM 70.3 °F 70.2 °F 99% 29.98 in 10.0 mi ESE 4.6 mph - 0.00 in   Clear
9:58 PM 70.2 °F 70.2 °F 100% 30.00 in 10.0 mi ESE 4.6 mph - 0.00 in   Clear
10:58 PM 70.9 °F 69.4 °F 95% 30.01 in 10.0 mi SE 5.8 mph - 0.00 in   Clear
11:58 PM 70.0 °F 70.0 °F 100% 30.00 in 10.0 mi SSE 6.9 mph - N/A   Clear